TFL533 EHAM-GCFV

Flight info

Callsign TFL533
Flight time 4h 24m
Altitude 34000
Route IDRID L980 MANGO L620 SAM N19 ADKIK DCT JOZMA DCT GAPLI/M083F340 DCT OMOKO T16 EKROL/M083F350 T16 NAVIX/N0476F370 DCT ORTIS DCT PITAB DCT BRICK/N0501F290 DCT GDV
Aircraft B763/H-SDE3FGHIM3RWXY/LB1

Departure

Time 2026-04-27 16:56
Airport Amsterdam Airport Schiphol (EHAM)

Arrival

Time 2026-04-27 21:20
Airport Fuerteventura Airport (GCFV)
Time Latitude Longitude Altitude Speed Heading
2026-04-27 16:20 52.31215 4.77271 -1 ft 0 kts 182°
2026-04-27 16:45 52.31227 4.77272 -1 ft 2 kts 182°
2026-04-27 16:45 52.31242 4.77273 -1 ft 2 kts 182°
2026-04-27 16:46 52.31257 4.77274 -1 ft 2 kts 184°
2026-04-27 16:46 52.31271 4.77280 -1 ft 2 kts 211°
2026-04-27 16:46 52.31282 4.77295 -1 ft 2 kts 233°
2026-04-27 16:46 52.31289 4.77317 -1 ft 2 kts 257°
2026-04-27 16:47 52.31291 4.77335 -1 ft 0 kts 274°
2026-04-27 16:47 52.31290 4.77338 -1 ft 0 kts 274°
2026-04-27 16:49 52.31292 4.77315 -1 ft 5 kts 274°
2026-04-27 16:49 52.31295 4.77231 -1 ft 7 kts 275°
2026-04-27 16:49 52.31319 4.77183 -1 ft 5 kts 352°
2026-04-27 16:49 52.31359 4.77187 -1 ft 7 kts
2026-04-27 16:50 52.31454 4.77198 -1 ft 17 kts
2026-04-27 16:50 52.31542 4.77202 -1 ft 8 kts 353°
2026-04-27 16:50 52.31569 4.77149 -2 ft 5 kts 284°
2026-04-27 16:50 52.31568 4.77077 -1 ft 7 kts 266°
2026-04-27 16:51 52.31565 4.76978 -1 ft 10 kts 268°
2026-04-27 16:51 52.31562 4.76847 -1 ft 12 kts 267°
2026-04-27 16:51 52.31556 4.76679 -1 ft 18 kts 267°
2026-04-27 16:51 52.31547 4.76391 -1 ft 31 kts 266°
2026-04-27 16:52 52.31535 4.76021 -1 ft 32 kts 267°
2026-04-27 16:52 52.31522 4.75664 0 ft 31 kts 267°
2026-04-27 16:52 52.31509 4.75315 0 ft 30 kts 267°
2026-04-27 16:52 52.31497 4.74970 0 ft 29 kts 266°
2026-04-27 16:53 52.31489 4.74763 0 ft 9 kts 267°
2026-04-27 16:53 52.31508 4.74678 0 ft 7 kts 326°
2026-04-27 16:53 52.31560 4.74660 0 ft 8 kts 357°
2026-04-27 16:53 52.31615 4.74657 0 ft 4 kts
2026-04-27 16:54 52.31645 4.74682 0 ft 5 kts 38°
2026-04-27 16:54 52.31665 4.74732 0 ft 5 kts 80°
2026-04-27 16:54 52.31668 4.74801 0 ft 9 kts 86°
2026-04-27 16:54 52.31676 4.75029 0 ft 40 kts 87°
2026-04-27 16:55 52.31705 4.75809 0 ft 96 kts 87°
2026-04-27 16:55 52.31740 4.76741 -1 ft 130 kts 86°
2026-04-27 16:55 52.31757 4.77231 -1 ft 144 kts 85°
2026-04-27 16:55 52.31835 4.78970 293 ft 159 kts 83°
2026-04-27 16:56 52.31770 4.80759 793 ft 165 kts 113°
2026-04-27 16:56 52.30933 4.82081 1262 ft 181 kts 157°
2026-04-27 16:56 52.29595 4.82168 1423 ft 212 kts 194°
2026-04-27 16:56 52.28113 4.81295 1691 ft 235 kts 198°
2026-04-27 16:57 52.26572 4.80413 2375 ft 239 kts 201°
2026-04-27 16:57 52.25077 4.78956 2683 ft 262 kts 215°
2026-04-27 16:57 52.23558 4.77221 3378 ft 269 kts 214°
2026-04-27 16:57 52.22012 4.75496 4174 ft 271 kts 214°
2026-04-27 16:58 52.20620 4.73494 4932 ft 274 kts 234°
2026-04-27 16:58 52.19608 4.70881 5709 ft 275 kts 239°
2026-04-27 16:58 52.18599 4.68218 6517 ft 277 kts 239°
2026-04-27 16:58 52.17590 4.65516 7259 ft 280 kts 239°
2026-04-27 16:59 52.16581 4.62794 8040 ft 282 kts 240°
2026-04-27 16:59 52.15571 4.60062 8771 ft 285 kts 240°
2026-04-27 16:59 52.14561 4.57324 9482 ft 287 kts 240°
2026-04-27 16:59 52.13522 4.54509 10192 ft 290 kts 240°
2026-04-27 17:00 52.11735 4.49664 10690 ft 321 kts 240°
2026-04-27 17:00 52.10561 4.44952 10736 ft 356 kts 261°
2026-04-27 17:00 52.10335 4.40859 11073 ft 374 kts 268°
2026-04-27 17:01 52.10112 4.36627 11958 ft 376 kts 266°
2026-04-27 17:01 52.09890 4.32430 12800 ft 379 kts 265°
2026-04-27 17:01 52.09649 4.28152 13609 ft 383 kts 265°
2026-04-27 17:01 52.09414 4.23832 14403 ft 386 kts 265°
2026-04-27 17:02 52.09171 4.19486 15150 ft 389 kts 265°
2026-04-27 17:02 52.08927 4.15139 15935 ft 390 kts 265°
2026-04-27 17:02 52.08680 4.10745 16614 ft 394 kts 265°
2026-04-27 17:02 52.08428 4.06317 17299 ft 397 kts 265°
2026-04-27 17:03 52.08174 4.01880 17999 ft 400 kts 265°
2026-04-27 17:03 52.07915 3.97385 18829 ft 401 kts 265°
2026-04-27 17:03 52.07654 3.92884 19642 ft 402 kts 265°
2026-04-27 17:03 52.07393 3.88410 20393 ft 404 kts 265°
2026-04-27 17:04 52.06974 3.83875 21080 ft 407 kts 257°
2026-04-27 17:04 52.06103 3.79487 21769 ft 410 kts 251°
2026-04-27 17:04 52.05181 3.75165 22465 ft 411 kts 252°
2026-04-27 17:04 52.04236 3.70778 23192 ft 412 kts 252°
2026-04-27 17:05 52.03300 3.66441 23832 ft 414 kts 252°
2026-04-27 17:05 52.02330 3.61998 24386 ft 419 kts 252°
2026-04-27 17:05 52.01360 3.57566 25055 ft 421 kts 251°
2026-04-27 17:05 52.00705 3.54582 25508 ft 424 kts 252°
2026-04-27 17:06 51.99086 3.48765 26332 ft 432 kts 240°
2026-04-27 17:06 51.97376 3.44773 26975 ft 437 kts 236°
2026-04-27 17:06 51.95576 3.40743 27590 ft 441 kts 237°
2026-04-27 17:06 51.93785 3.36759 28175 ft 445 kts 237°
2026-04-27 17:07 51.91964 3.32717 28804 ft 448 kts 236°
2026-04-27 17:07 51.90102 3.28614 29294 ft 452 kts 236°
2026-04-27 17:07 51.88253 3.24527 29864 ft 454 kts 236°
2026-04-27 17:07 51.86565 3.20275 30536 ft 451 kts 244°
2026-04-27 17:08 51.85361 3.15679 31264 ft 445 kts 253°
2026-04-27 17:08 51.84651 3.10841 31777 ft 444 kts 262°
2026-04-27 17:08 51.84278 3.05879 32271 ft 443 kts 263°
2026-04-27 17:08 51.83917 3.00958 32779 ft 442 kts 264°
2026-04-27 17:09 51.83575 2.96044 33216 ft 442 kts 264°
2026-04-27 17:09 51.83243 2.91183 33715 ft 439 kts 264°
2026-04-27 17:09 51.82914 2.86329 34089 ft 439 kts 264°
2026-04-27 17:09 51.82585 2.81470 34542 ft 436 kts 264°
2026-04-27 17:10 51.82253 2.76562 34834 ft 438 kts 264°
2026-04-27 17:10 51.81924 2.71722 35193 ft 438 kts 265°
2026-04-27 17:10 51.81595 2.66892 35551 ft 437 kts 265°
2026-04-27 17:11 51.80923 2.57142 35970 ft 436 kts 265°
2026-04-27 17:11 51.80246 2.47429 36598 ft 437 kts 265°
2026-04-27 17:11 51.79903 2.42562 36840 ft 439 kts 266°
2026-04-27 17:12 51.79213 2.32851 37215 ft 435 kts 265°
2026-04-27 17:12 51.78869 2.28044 37236 ft 434 kts 265°
2026-04-27 17:13 51.78221 2.18321 37228 ft 438 kts 266°
2026-04-27 17:13 51.77652 2.08545 37239 ft 437 kts 266°
2026-04-27 17:14 51.77078 1.98887 37241 ft 437 kts 266°
2026-04-27 17:14 51.76492 1.89163 37223 ft 437 kts 266°
2026-04-27 17:15 51.75896 1.79426 37223 ft 436 kts 266°
2026-04-27 17:15 51.75293 1.69711 37214 ft 438 kts 266°
2026-04-27 17:16 51.74682 1.59994 37217 ft 437 kts 266°
2026-04-27 17:16 51.74062 1.50261 37215 ft 438 kts 266°
2026-04-27 17:17 51.73429 1.40464 37207 ft 438 kts 266°
2026-04-27 17:17 51.72794 1.30762 37202 ft 438 kts 266°
2026-04-27 17:18 51.71822 1.16136 37209 ft 439 kts 266°
2026-04-27 17:18 51.71167 1.06443 37206 ft 438 kts 266°
2026-04-27 17:19 51.70499 0.96671 37223 ft 439 kts 266°
2026-04-27 17:19 51.69823 0.86912 37210 ft 440 kts 266°
2026-04-27 17:20 51.68364 0.77282 37247 ft 447 kts 249°
2026-04-27 17:20 51.65011 0.68801 37246 ft 455 kts 236°
2026-04-27 17:21 51.61249 0.60674 37243 ft 455 kts 238°
2026-04-27 17:21 51.57560 0.52467 37229 ft 454 kts 238°
2026-04-27 17:22 51.53864 0.44187 37209 ft 455 kts 238°
2026-04-27 17:22 51.50193 0.35960 37212 ft 455 kts 239°
2026-04-27 17:23 51.46510 0.27726 37223 ft 456 kts 238°
2026-04-27 17:23 51.42810 0.19482 37231 ft 457 kts 238°
2026-04-27 17:24 51.39088 0.11210 37222 ft 458 kts 238°
2026-04-27 17:24 51.35363 0.02959 37220 ft 457 kts 238°
2026-04-27 17:25 51.31657 -0.05224 37218 ft 459 kts 238°
2026-04-27 17:25 51.28310 -0.13818 37233 ft 452 kts 251°
2026-04-27 17:26 51.26386 -0.23262 37237 ft 450 kts 257°
2026-04-27 17:26 51.24547 -0.32876 37220 ft 450 kts 257°
2026-04-27 17:27 51.22732 -0.42349 37200 ft 451 kts 257°
2026-04-27 17:27 51.20899 -0.51870 37219 ft 451 kts 257°
2026-04-27 17:28 51.19049 -0.61433 37195 ft 452 kts 257°
2026-04-27 17:29 51.16272 -0.75702 37245 ft 452 kts 256°
2026-04-27 17:29 51.14402 -0.85250 37227 ft 452 kts 256°
2026-04-27 17:30 51.12520 -0.94812 37226 ft 455 kts 256°
2026-04-27 17:30 51.09671 -1.09199 37224 ft 455 kts 256°
2026-04-27 17:31 51.07751 -1.18833 37222 ft 456 kts 256°
2026-04-27 17:31 51.05833 -1.28409 37211 ft 457 kts 257°
2026-04-27 17:32 51.02928 -1.42825 37216 ft 457 kts 256°
2026-04-27 17:33 51.00987 -1.52400 37209 ft 455 kts 256°
2026-04-27 17:33 50.99049 -1.61910 37255 ft 456 kts 256°
2026-04-27 17:34 50.97090 -1.71488 37236 ft 459 kts 256°
2026-04-27 17:34 50.95111 -1.81104 37234 ft 459 kts 256°
2026-04-27 17:35 50.93134 -1.90669 37229 ft 459 kts 256°
2026-04-27 17:35 50.91139 -2.00275 37239 ft 460 kts 256°
2026-04-27 17:36 50.89130 -2.09905 37219 ft 461 kts 256°
2026-04-27 17:36 50.87116 -2.19509 37226 ft 461 kts 256°
2026-04-27 17:37 50.85083 -2.29162 37231 ft 463 kts 256°
2026-04-27 17:37 50.83055 -2.38736 37229 ft 462 kts 256°
2026-04-27 17:38 50.81005 -2.48371 37242 ft 464 kts 256°
2026-04-27 17:38 50.79263 -2.58121 37244 ft 460 kts 264°
2026-04-27 17:39 50.78123 -2.68074 37235 ft 462 kts 263°
2026-04-27 17:39 50.76962 -2.78020 37236 ft 462 kts 263°
2026-04-27 17:40 50.75788 -2.88006 37238 ft 463 kts 263°
2026-04-27 17:40 50.74602 -2.98007 37239 ft 463 kts 263°
2026-04-27 17:41 50.73417 -3.07941 37236 ft 464 kts 263°
2026-04-27 17:41 50.72214 -3.17938 37234 ft 467 kts 263°
2026-04-27 17:42 50.70988 -3.28055 37232 ft 467 kts 263°
2026-04-27 17:42 50.69764 -3.38075 37242 ft 468 kts 263°
2026-04-27 17:43 50.68527 -3.48126 37241 ft 469 kts 263°
2026-04-27 17:43 50.67273 -3.58243 37241 ft 471 kts 263°
2026-04-27 17:44 50.66005 -3.68393 37235 ft 473 kts 262°
2026-04-27 17:44 50.64729 -3.78534 37231 ft 474 kts 262°
2026-04-27 17:45 50.63436 -3.88725 37240 ft 476 kts 262°
2026-04-27 17:45 50.62105 -3.98894 37231 ft 476 kts 261°
2026-04-27 17:46 50.60718 -4.09057 37222 ft 476 kts 262°
2026-04-27 17:46 50.59321 -4.19236 37222 ft 476 kts 262°
2026-04-27 17:47 50.57922 -4.29368 37227 ft 479 kts 262°
2026-04-27 17:47 50.56496 -4.39615 37235 ft 479 kts 262°
2026-04-27 17:48 50.55067 -4.49821 37226 ft 481 kts 262°
2026-04-27 17:48 50.53618 -4.60092 37250 ft 480 kts 262°
2026-04-27 17:49 50.52170 -4.70289 37244 ft 481 kts 261°
2026-04-27 17:49 50.50706 -4.80532 37238 ft 483 kts 261°
2026-04-27 17:50 50.49226 -4.90810 37256 ft 483 kts 261°
2026-04-27 17:50 50.46994 -5.06186 37270 ft 485 kts 261°
2026-04-27 17:51 50.45488 -5.16477 37261 ft 485 kts 261°
2026-04-27 17:51 50.43973 -5.26759 37263 ft 485 kts 261°
2026-04-27 17:52 50.42440 -5.37096 37262 ft 487 kts 261°
2026-04-27 17:52 50.41170 -5.45614 37271 ft 487 kts 261°
2026-04-27 17:53 50.39361 -5.57652 37258 ft 486 kts 261°
2026-04-27 17:53 50.37811 -5.67912 37257 ft 488 kts 260°
2026-04-27 17:54 50.36229 -5.78297 37261 ft 490 kts 260°
2026-04-27 17:54 50.34646 -5.88627 37261 ft 488 kts 260°
2026-04-27 17:55 50.33060 -5.98913 37277 ft 490 kts 260°
2026-04-27 17:55 50.31449 -6.09291 37283 ft 490 kts 260°
2026-04-27 17:56 50.29846 -6.19556 37289 ft 490 kts 260°
2026-04-27 17:56 50.28222 -6.29887 37274 ft 492 kts 260°
2026-04-27 17:57 50.26586 -6.40226 37286 ft 490 kts 260°
2026-04-27 17:57 50.24936 -6.50594 37271 ft 492 kts 260°
2026-04-27 17:58 50.23278 -6.60955 37297 ft 494 kts 261°
2026-04-27 17:58 50.21606 -6.71324 37287 ft 495 kts 259°
2026-04-27 17:59 50.19913 -6.81758 37280 ft 495 kts 259°
2026-04-27 17:59 50.18219 -6.92145 37310 ft 496 kts 259°
2026-04-27 18:00 50.16517 -7.02503 37289 ft 494 kts 259°
2026-04-27 18:00 50.14804 -7.12876 37284 ft 497 kts 259°
2026-04-27 18:01 50.13084 -7.23226 37283 ft 496 kts 259°
2026-04-27 18:01 50.11342 -7.33640 37290 ft 498 kts 259°
2026-04-27 18:02 50.09586 -7.44078 37298 ft 498 kts 259°
2026-04-27 18:02 50.07827 -7.54467 37308 ft 496 kts 259°
2026-04-27 18:03 50.06067 -7.64808 37305 ft 497 kts 259°
2026-04-27 18:03 50.04296 -7.75149 37313 ft 499 kts 258°
2026-04-27 18:04 50.02502 -7.85561 37304 ft 497 kts 258°
2026-04-27 18:04 50.00697 -7.95967 37306 ft 498 kts 258°
2026-04-27 18:05 49.98307 -8.06057 37309 ft 502 kts 251°
2026-04-27 18:05 49.95679 -8.16065 37302 ft 502 kts 251°
2026-04-27 18:06 49.93016 -8.26017 37292 ft 501 kts 251°
2026-04-27 18:06 49.90329 -8.35981 37292 ft 503 kts 251°
2026-04-27 18:07 49.87620 -8.45974 37292 ft 503 kts 251°
2026-04-27 18:07 49.84891 -8.55989 37301 ft 504 kts 251°
2026-04-27 18:08 49.82164 -8.65961 37318 ft 504 kts 250°
2026-04-27 18:08 49.79437 -8.75885 37291 ft 505 kts 250°
2026-04-27 18:09 49.76675 -8.85895 37284 ft 504 kts 250°
2026-04-27 18:09 49.73934 -8.95791 37287 ft 504 kts 249°
2026-04-27 18:10 49.71154 -9.05782 37280 ft 506 kts 250°
2026-04-27 18:10 49.68387 -9.15684 37304 ft 504 kts 249°
2026-04-27 18:11 49.65604 -9.25600 37309 ft 506 kts 249°
2026-04-27 18:11 49.62825 -9.35464 37320 ft 508 kts 250°
2026-04-27 18:12 49.59995 -9.45464 37310 ft 507 kts 249°
2026-04-27 18:12 49.57183 -9.55363 37310 ft 506 kts 249°
2026-04-27 18:13 49.54353 -9.65283 37291 ft 507 kts 248°
2026-04-27 18:13 49.51523 -9.75159 37305 ft 506 kts 248°
2026-04-27 18:14 49.48677 -9.85053 37310 ft 509 kts 248°
2026-04-27 18:14 49.45817 -9.94951 37297 ft 509 kts 248°
2026-04-27 18:15 49.42942 -10.04861 37304 ft 510 kts 248°
2026-04-27 18:15 49.40038 -10.14829 37303 ft 509 kts 249°
2026-04-27 18:16 49.37149 -10.24711 37310 ft 509 kts 248°
2026-04-27 18:16 49.34255 -10.34566 37278 ft 509 kts 248°
2026-04-27 18:17 49.31347 -10.44426 37313 ft 510 kts 248°
2026-04-27 18:17 49.28430 -10.54278 37307 ft 509 kts 248°
2026-04-27 18:18 49.25502 -10.64126 37303 ft 511 kts 248°
2026-04-27 18:18 49.22543 -10.74043 37311 ft 512 kts 247°
2026-04-27 18:19 49.19609 -10.83833 37316 ft 511 kts 247°
2026-04-27 18:19 49.16629 -10.93733 37306 ft 510 kts 247°
2026-04-27 18:20 49.13683 -11.03488 37301 ft 510 kts 247°
2026-04-27 18:20 49.10705 -11.13307 37302 ft 512 kts 247°
2026-04-27 18:21 49.07722 -11.23099 37310 ft 509 kts 247°
2026-04-27 18:21 49.04734 -11.32874 37310 ft 510 kts 247°
2026-04-27 18:22 49.01727 -11.42671 37324 ft 511 kts 247°
2026-04-27 18:22 48.98724 -11.52417 37328 ft 510 kts 247°
2026-04-27 18:23 48.95712 -11.62150 37336 ft 510 kts 247°
2026-04-27 18:23 48.92697 -11.71858 37331 ft 509 kts 246°
2026-04-27 18:24 48.89670 -11.81565 37336 ft 510 kts 246°
2026-04-27 18:24 48.86291 -11.90955 37343 ft 512 kts 234°
2026-04-27 18:25 48.81554 -11.98974 37332 ft 511 kts 219°
2026-04-27 18:25 48.75603 -12.04666 37343 ft 508 kts 201°
2026-04-27 18:26 48.69001 -12.08369 37322 ft 508 kts 198°
2026-04-27 18:26 48.62382 -12.12050 37313 ft 507 kts 198°
2026-04-27 18:27 48.55746 -12.15740 37310 ft 506 kts 198°
2026-04-27 18:27 48.49127 -12.19414 37314 ft 508 kts 198°
2026-04-27 18:28 48.42545 -12.23059 37314 ft 507 kts 198°
2026-04-27 18:28 48.35930 -12.26712 37317 ft 506 kts 198°
2026-04-27 18:29 48.29302 -12.30361 37314 ft 507 kts 198°
2026-04-27 18:29 48.22726 -12.33973 37310 ft 506 kts 198°
2026-04-27 18:30 48.16135 -12.37582 37312 ft 506 kts 198°
2026-04-27 18:30 48.09491 -12.41211 37319 ft 507 kts 198°
2026-04-27 18:31 48.02862 -12.44821 37316 ft 507 kts 198°
2026-04-27 18:31 47.96285 -12.48393 37304 ft 507 kts 198°
2026-04-27 18:32 47.89644 -12.51991 37317 ft 506 kts 198°
2026-04-27 18:32 47.83069 -12.55543 37292 ft 504 kts 198°
2026-04-27 18:33 47.76446 -12.59110 37295 ft 505 kts 198°
2026-04-27 18:33 47.69839 -12.62660 37293 ft 506 kts 198°
2026-04-27 18:34 47.63258 -12.66187 37298 ft 504 kts 198°
2026-04-27 18:34 47.56707 -12.69688 37290 ft 504 kts 198°
2026-04-27 18:35 47.50119 -12.73199 37282 ft 503 kts 198°
2026-04-27 18:35 47.43534 -12.76699 37275 ft 503 kts 198°
2026-04-27 18:36 47.36972 -12.80178 37280 ft 503 kts 198°
2026-04-27 18:36 47.30435 -12.83635 37278 ft 502 kts 198°
2026-04-27 18:37 47.23789 -12.87139 37270 ft 503 kts 198°
2026-04-27 18:37 47.17209 -12.90600 37281 ft 503 kts 198°
2026-04-27 18:38 47.10612 -12.94061 37276 ft 502 kts 198°
2026-04-27 18:38 47.04087 -12.97474 37265 ft 501 kts 198°
2026-04-27 18:39 46.97501 -13.00910 37271 ft 500 kts 198°
2026-04-27 18:39 46.90973 -13.04308 37283 ft 502 kts 198°
2026-04-27 18:40 46.84412 -13.07715 37272 ft 501 kts 198°
2026-04-27 18:40 46.77860 -13.11106 37273 ft 501 kts 198°
2026-04-27 18:41 46.71294 -13.14497 37271 ft 502 kts 198°
2026-04-27 18:41 46.64734 -13.17877 37264 ft 501 kts 198°
2026-04-27 18:42 46.59269 -13.20685 37271 ft 501 kts 198°
2026-04-27 18:42 46.51584 -13.24624 37267 ft 501 kts 198°
2026-04-27 18:43 46.45063 -13.27957 37257 ft 500 kts 198°
2026-04-27 18:43 46.38494 -13.31307 37275 ft 499 kts 198°
2026-04-27 18:44 46.31951 -13.34633 37265 ft 499 kts 199°
2026-04-27 18:44 46.25418 -13.37948 37271 ft 499 kts 199°
2026-04-27 18:45 46.18919 -13.41237 37254 ft 499 kts 199°
2026-04-27 18:45 46.12339 -13.44557 37261 ft 498 kts 199°
2026-04-27 18:46 46.05831 -13.47833 37243 ft 498 kts 199°
2026-04-27 18:46 45.99284 -13.51121 37245 ft 498 kts 199°
2026-04-27 18:47 45.92775 -13.54381 37247 ft 499 kts 199°
2026-04-27 18:47 45.86225 -13.57654 37237 ft 498 kts 199°
2026-04-27 18:48 45.79695 -13.60909 37243 ft 497 kts 199°
2026-04-27 18:48 45.73212 -13.64132 37225 ft 497 kts 199°
2026-04-27 18:49 45.66679 -13.67372 37235 ft 495 kts 198°
2026-04-27 18:49 45.60201 -13.70577 37230 ft 494 kts 198°
2026-04-27 18:50 45.53705 -13.73783 37238 ft 496 kts 198°
2026-04-27 18:50 45.47199 -13.76986 37239 ft 495 kts 198°
2026-04-27 18:51 45.40730 -13.80163 37240 ft 494 kts 198°
2026-04-27 18:51 45.34260 -13.83333 37237 ft 493 kts 199°
2026-04-27 18:52 45.27792 -13.86494 37234 ft 494 kts 199°
2026-04-27 18:53 45.18088 -13.91223 37232 ft 493 kts 199°
2026-04-27 18:53 45.11588 -13.94381 37221 ft 493 kts 199°
2026-04-27 18:54 45.05126 -13.97512 37224 ft 492 kts 199°
2026-04-27 18:54 44.98710 -14.00677 37246 ft 491 kts 201°
2026-04-27 18:55 44.92370 -14.04228 37239 ft 491 kts 202°
2026-04-27 18:55 44.86000 -14.07765 37234 ft 491 kts 202°
2026-04-27 18:56 44.79669 -14.11270 37234 ft 491 kts 202°
2026-04-27 18:56 44.73342 -14.14764 37229 ft 490 kts 202°
2026-04-27 18:57 44.66980 -14.18268 37234 ft 489 kts 202°
2026-04-27 18:57 44.60659 -14.21742 37223 ft 490 kts 202°
2026-04-27 18:58 44.54348 -14.25202 37231 ft 490 kts 202°
2026-04-27 18:58 44.47996 -14.28677 37228 ft 489 kts 202°
2026-04-27 18:59 44.41696 -14.32114 37226 ft 488 kts 202°
2026-04-27 18:59 44.35390 -14.35547 37228 ft 488 kts 202°
2026-04-27 19:00 44.29077 -14.38975 37232 ft 486 kts 202°
2026-04-27 19:00 44.22808 -14.42373 37220 ft 487 kts 202°
2026-04-27 19:01 44.16475 -14.45797 37208 ft 488 kts 202°
2026-04-27 19:01 44.10156 -14.49206 37213 ft 485 kts 202°
2026-04-27 19:02 44.03898 -14.52574 37213 ft 485 kts 202°
2026-04-27 19:02 43.97613 -14.55948 37218 ft 486 kts 202°
2026-04-27 19:03 43.91333 -14.59313 37221 ft 485 kts 202°
2026-04-27 19:03 43.85062 -14.62665 37210 ft 485 kts 202°
2026-04-27 19:04 43.78737 -14.66038 37205 ft 485 kts 202°
2026-04-27 19:04 43.72467 -14.69374 37200 ft 484 kts 202°
2026-04-27 19:05 43.66226 -14.72688 37211 ft 484 kts 202°
2026-04-27 19:05 43.59909 -14.76034 37201 ft 485 kts 202°
2026-04-27 19:06 43.53644 -14.79345 37205 ft 484 kts 202°
2026-04-27 19:06 43.47355 -14.82662 37209 ft 485 kts 202°
2026-04-27 19:07 43.41089 -14.85959 37209 ft 483 kts 202°
2026-04-27 19:07 43.34816 -14.89253 37207 ft 484 kts 202°
2026-04-27 19:08 43.28518 -14.92552 37202 ft 485 kts 202°
2026-04-27 19:08 43.22245 -14.95830 37208 ft 484 kts 202°
2026-04-27 19:09 43.15962 -14.99107 37198 ft 484 kts 202°
2026-04-27 19:09 43.09695 -15.02369 37193 ft 482 kts 202°
2026-04-27 19:10 43.03445 -15.05614 37198 ft 482 kts 202°
2026-04-27 19:10 42.97158 -15.08871 37194 ft 483 kts 202°
2026-04-27 19:11 42.90886 -15.12115 37209 ft 485 kts 202°
2026-04-27 19:11 42.84573 -15.15370 37202 ft 484 kts 202°
2026-04-27 19:12 42.78307 -15.18596 37202 ft 483 kts 202°
2026-04-27 19:12 42.72039 -15.21814 37201 ft 482 kts 202°
2026-04-27 19:13 42.65766 -15.25030 37195 ft 483 kts 202°
2026-04-27 19:13 42.59498 -15.28235 37193 ft 482 kts 202°
2026-04-27 19:14 42.53223 -15.31438 37204 ft 483 kts 202°
2026-04-27 19:14 42.46986 -15.34613 37192 ft 481 kts 202°
2026-04-27 19:15 42.40728 -15.37793 37194 ft 481 kts 202°
2026-04-27 19:15 42.34463 -15.40970 37191 ft 481 kts 202°
2026-04-27 19:16 42.28241 -15.44118 37192 ft 479 kts 202°
2026-04-27 19:16 42.21998 -15.47270 37200 ft 480 kts 202°
2026-04-27 19:17 42.15749 -15.50418 37182 ft 480 kts 202°
2026-04-27 19:17 42.09489 -15.53565 37197 ft 480 kts 202°
2026-04-27 19:18 42.03237 -15.56699 37194 ft 481 kts 201°
2026-04-27 19:18 41.96698 -15.58533 37210 ft 482 kts 187°
2026-04-27 19:19 41.90021 -15.59380 37195 ft 482 kts 186°
2026-04-27 19:19 41.83370 -15.60146 37187 ft 482 kts 186°
2026-04-27 19:20 41.76684 -15.60890 37180 ft 482 kts 186°
2026-04-27 19:20 41.70014 -15.61622 37176 ft 483 kts 186°
2026-04-27 19:21 41.63289 -15.62358 37180 ft 484 kts 186°
2026-04-27 19:21 41.56614 -15.63085 37184 ft 483 kts 186°
2026-04-27 19:22 41.49905 -15.63814 37182 ft 484 kts 186°
2026-04-27 19:22 41.43200 -15.64542 37185 ft 484 kts 186°
2026-04-27 19:23 41.36515 -15.65266 37172 ft 483 kts 186°
2026-04-27 19:23 41.29823 -15.65989 37184 ft 484 kts 186°
2026-04-27 19:24 41.23150 -15.66708 37172 ft 485 kts 186°
2026-04-27 19:24 41.16446 -15.67430 37175 ft 484 kts 186°
2026-04-27 19:25 41.09734 -15.68151 37169 ft 484 kts 186°
2026-04-27 19:25 41.03037 -15.68868 37166 ft 484 kts 186°
2026-04-27 19:26 40.96341 -15.69585 37170 ft 484 kts 186°
2026-04-27 19:26 40.89615 -15.70302 37168 ft 484 kts 186°
2026-04-27 19:27 40.82901 -15.71017 37165 ft 484 kts 186°
2026-04-27 19:27 40.76196 -15.71730 37162 ft 486 kts 186°
2026-04-27 19:28 40.69486 -15.72442 37162 ft 485 kts 186°
2026-04-27 19:28 40.62785 -15.73151 37163 ft 484 kts 186°
2026-04-27 19:29 40.56047 -15.73863 37166 ft 484 kts 186°
2026-04-27 19:29 40.49361 -15.74568 37163 ft 485 kts 186°
2026-04-27 19:30 40.42602 -15.75280 37157 ft 486 kts 186°
2026-04-27 19:30 40.35909 -15.75982 37156 ft 485 kts 186°
2026-04-27 19:31 40.29185 -15.76687 37160 ft 486 kts 186°
2026-04-27 19:31 40.22446 -15.77392 37151 ft 485 kts 186°
2026-04-27 19:32 40.15718 -15.78094 37158 ft 487 kts 186°
2026-04-27 19:32 40.08968 -15.78798 37157 ft 487 kts 186°
2026-04-27 19:33 40.02227 -15.79498 37155 ft 486 kts 186°
2026-04-27 19:33 39.95497 -15.80197 37152 ft 487 kts 186°
2026-04-27 19:34 39.88768 -15.80894 37150 ft 486 kts 186°
2026-04-27 19:34 39.82003 -15.81593 37143 ft 487 kts 186°
2026-04-27 19:35 39.75267 -15.82288 37148 ft 487 kts 186°
2026-04-27 19:35 39.68523 -15.82982 37148 ft 488 kts 186°
2026-04-27 19:36 39.61773 -15.83676 37150 ft 487 kts 186°
2026-04-27 19:36 39.55001 -15.84371 37149 ft 487 kts 186°
2026-04-27 19:37 39.48265 -15.85060 37151 ft 487 kts 186°
2026-04-27 19:37 39.41510 -15.85750 37150 ft 488 kts 186°
2026-04-27 19:38 39.34739 -15.86440 37149 ft 488 kts 186°
2026-04-27 19:38 39.27950 -15.87131 37148 ft 488 kts 186°
2026-04-27 19:39 39.21202 -15.87816 37153 ft 488 kts 186°
2026-04-27 19:39 39.14423 -15.88504 37153 ft 488 kts 186°
2026-04-27 19:40 39.07647 -15.89189 37149 ft 486 kts 186°
2026-04-27 19:40 39.00894 -15.89871 37155 ft 489 kts 186°
2026-04-27 19:41 38.94125 -15.90554 37146 ft 489 kts 186°
2026-04-27 19:41 38.87357 -15.91234 37140 ft 487 kts 186°
2026-04-27 19:42 38.80595 -15.91913 37139 ft 488 kts 186°
2026-04-27 19:42 38.73828 -15.92591 37137 ft 487 kts 186°
2026-04-27 19:43 38.67077 -15.93266 37139 ft 488 kts 186°
2026-04-27 19:43 38.60275 -15.93945 37140 ft 488 kts 186°
2026-04-27 19:44 38.53516 -15.94619 37133 ft 487 kts 186°
2026-04-27 19:44 38.46779 -15.95289 37134 ft 488 kts 186°
2026-04-27 19:45 38.39994 -15.95962 37136 ft 489 kts 186°
2026-04-27 19:45 38.33199 -15.96635 37125 ft 487 kts 186°
2026-04-27 19:46 38.26438 -15.97304 37124 ft 487 kts 186°
2026-04-27 19:46 38.19681 -15.97971 37122 ft 488 kts 186°
2026-04-27 19:47 38.12965 -15.98633 37118 ft 488 kts 186°
2026-04-27 19:47 38.06173 -15.99300 37113 ft 487 kts 186°
2026-04-27 19:48 37.99437 -15.99962 37119 ft 488 kts 186°
2026-04-27 19:48 37.92687 -16.00623 37113 ft 488 kts 186°
2026-04-27 19:49 37.85905 -16.01287 37109 ft 487 kts 186°
2026-04-27 19:49 37.79168 -16.01944 37112 ft 487 kts 186°
2026-04-27 19:50 37.72399 -16.02604 37112 ft 487 kts 186°
2026-04-27 19:50 37.65695 -16.03255 37111 ft 487 kts 186°
2026-04-27 19:51 37.58922 -16.03913 37112 ft 488 kts 186°
2026-04-27 19:51 37.52178 -16.04567 37112 ft 487 kts 186°
2026-04-27 19:52 37.45409 -16.05221 37114 ft 487 kts 186°
2026-04-27 19:52 37.38687 -16.05870 37110 ft 486 kts 186°
2026-04-27 19:53 37.28562 -16.06846 37112 ft 486 kts 186°
2026-04-27 19:53 37.21793 -16.07497 37113 ft 487 kts 186°
2026-04-27 19:54 37.15060 -16.08142 37116 ft 487 kts 186°
2026-04-27 19:54 37.08337 -16.08786 37111 ft 486 kts 186°
2026-04-27 19:55 37.01575 -16.09433 37117 ft 486 kts 186°
2026-04-27 19:55 36.94846 -16.10075 37116 ft 487 kts 186°
2026-04-27 19:56 36.88114 -16.10716 37110 ft 486 kts 186°
2026-04-27 19:56 36.81342 -16.11360 37110 ft 486 kts 186°
2026-04-27 19:57 36.74601 -16.12001 37107 ft 487 kts 186°
2026-04-27 19:57 36.67857 -16.12640 37112 ft 487 kts 186°
2026-04-27 19:58 36.61127 -16.13276 37106 ft 486 kts 186°
2026-04-27 19:58 36.54373 -16.13914 37106 ft 487 kts 186°
2026-04-27 19:59 36.47625 -16.14550 37103 ft 487 kts 186°
2026-04-27 19:59 36.40850 -16.15188 37100 ft 487 kts 186°
2026-04-27 20:00 36.34126 -16.15819 37104 ft 488 kts 186°
2026-04-27 20:00 36.27330 -16.16456 37099 ft 487 kts 186°
2026-04-27 20:01 36.20591 -16.17088 37102 ft 488 kts 186°
2026-04-27 20:01 36.13848 -16.17718 37096 ft 487 kts 186°
2026-04-27 20:02 36.07067 -16.18350 37097 ft 488 kts 186°
2026-04-27 20:02 36.03663 -16.18668 37357 ft 490 kts 186°
2026-04-27 20:02 36.00267 -16.18984 36719 ft 492 kts 186°
2026-04-27 20:03 35.96910 -16.19295 37270 ft 483 kts 186°
2026-04-27 20:03 35.93530 -16.19609 36825 ft 485 kts 186°
2026-04-27 20:03 35.90143 -16.19923 37142 ft 484 kts 186°
2026-04-27 20:03 35.86765 -16.20237 37089 ft 488 kts 186°
2026-04-27 20:04 35.79958 -16.20868 37098 ft 489 kts 186°
2026-04-27 20:04 35.74319 -16.21348 37081 ft 488 kts 185°
2026-04-27 20:05 35.66415 -16.22002 37357 ft 490 kts 185°
2026-04-27 20:05 35.62958 -16.22289 37052 ft 494 kts 185°
2026-04-27 20:05 35.59545 -16.22571 37112 ft 487 kts 185°
2026-04-27 20:06 35.56175 -16.22851 36911 ft 483 kts 185°
2026-04-27 20:06 35.52846 -16.23127 37113 ft 484 kts 185°
2026-04-27 20:06 35.49448 -16.23409 37228 ft 490 kts 185°
2026-04-27 20:06 35.46035 -16.23692 37082 ft 490 kts 185°
2026-04-27 20:07 35.39906 -16.24198 36933 ft 484 kts 185°
2026-04-27 20:07 35.37885 -16.24365 37064 ft 485 kts 185°
2026-04-27 20:07 35.34510 -16.24645 37133 ft 491 kts 185°
2026-04-27 20:08 35.31095 -16.24926 37366 ft 483 kts 185°
2026-04-27 20:08 35.27719 -16.25204 37205 ft 490 kts 185°
2026-04-27 20:08 35.24300 -16.25487 37094 ft 492 kts 185°
2026-04-27 20:08 35.20904 -16.25766 37176 ft 488 kts 185°
2026-04-27 20:09 35.14110 -16.26324 37103 ft 491 kts 185°
2026-04-27 20:09 35.07278 -16.26885 37096 ft 492 kts 185°
2026-04-27 20:10 35.00463 -16.27443 37098 ft 492 kts 186°
2026-04-27 20:10 34.93634 -16.28002 37098 ft 492 kts 185°
2026-04-27 20:11 34.90246 -16.28278 37312 ft 487 kts 186°
2026-04-27 20:11 34.86839 -16.28557 37045 ft 495 kts 186°
2026-04-27 20:11 34.79989 -16.29115 37080 ft 491 kts 186°
2026-04-27 20:12 34.74332 -16.29576 37094 ft 493 kts 186°
2026-04-27 20:12 34.66342 -16.30225 37093 ft 493 kts 186°
2026-04-27 20:13 34.59501 -16.30780 37096 ft 493 kts 186°
2026-04-27 20:13 34.52652 -16.31335 37090 ft 493 kts 186°
2026-04-27 20:14 34.45789 -16.31890 37089 ft 492 kts 186°
2026-04-27 20:14 34.38936 -16.32443 37093 ft 493 kts 186°
2026-04-27 20:15 34.32099 -16.32994 37090 ft 494 kts 186°
2026-04-27 20:15 34.25243 -16.33545 37091 ft 494 kts 186°
2026-04-27 20:16 34.18401 -16.34095 37095 ft 495 kts 186°
2026-04-27 20:16 34.11496 -16.34649 37095 ft 494 kts 186°
2026-04-27 20:17 34.04644 -16.35197 37093 ft 494 kts 186°
2026-04-27 20:17 33.98915 -16.35656 37087 ft 495 kts 186°
2026-04-27 20:18 33.90912 -16.36295 37091 ft 497 kts 186°
2026-04-27 20:18 33.84030 -16.36843 37092 ft 496 kts 186°
2026-04-27 20:19 33.77120 -16.37392 37093 ft 496 kts 186°
2026-04-27 20:19 33.70237 -16.37939 37088 ft 495 kts 186°
2026-04-27 20:20 33.63387 -16.38482 37086 ft 498 kts 186°
2026-04-27 20:20 33.56465 -16.39031 37091 ft 498 kts 186°
2026-04-27 20:21 33.49533 -16.39578 37091 ft 497 kts 186°
2026-04-27 20:21 33.42612 -16.40124 37094 ft 498 kts 187°
2026-04-27 20:22 33.35737 -16.40665 37094 ft 496 kts 187°
2026-04-27 20:22 33.28841 -16.41208 37100 ft 498 kts 187°
2026-04-27 20:23 33.21870 -16.41756 37099 ft 499 kts 187°
2026-04-27 20:23 33.14947 -16.42299 37098 ft 499 kts 187°
2026-04-27 20:24 33.08030 -16.42840 37104 ft 499 kts 187°
2026-04-27 20:24 33.01104 -16.43382 37102 ft 498 kts 187°
2026-04-27 20:25 32.94157 -16.43924 37097 ft 499 kts 187°
2026-04-27 20:25 32.87226 -16.44464 37090 ft 499 kts 187°
2026-04-27 20:26 32.80320 -16.45001 37087 ft 499 kts 187°
2026-04-27 20:26 32.73393 -16.45539 37085 ft 499 kts 187°
2026-04-27 20:27 32.66410 -16.46081 37088 ft 500 kts 187°
2026-04-27 20:27 32.59481 -16.46617 37090 ft 499 kts 187°
2026-04-27 20:28 32.52539 -16.47154 37091 ft 500 kts 187°
2026-04-27 20:28 32.46733 -16.47603 37086 ft 500 kts 187°
2026-04-27 20:29 32.38665 -16.48224 37083 ft 498 kts 188°
2026-04-27 20:29 32.31738 -16.48758 37083 ft 499 kts 187°
2026-04-27 20:30 32.24777 -16.49292 37082 ft 499 kts 188°
2026-04-27 20:30 32.17828 -16.49825 37081 ft 499 kts 188°
2026-04-27 20:31 32.10935 -16.50353 37080 ft 499 kts 188°
2026-04-27 20:31 32.03978 -16.50885 37081 ft 498 kts 188°
2026-04-27 20:32 31.97071 -16.51413 37081 ft 498 kts 188°
2026-04-27 20:32 31.90183 -16.51938 37082 ft 497 kts 188°
2026-04-27 20:33 31.83248 -16.52467 37075 ft 498 kts 188°
2026-04-27 20:33 31.76328 -16.52993 37074 ft 498 kts 188°
2026-04-27 20:34 31.69376 -16.53520 37074 ft 499 kts 188°
2026-04-27 20:34 31.62483 -16.54043 37076 ft 498 kts 188°
2026-04-27 20:35 31.55569 -16.54566 37077 ft 497 kts 188°
2026-04-27 20:35 31.48686 -16.55087 37078 ft 497 kts 188°
2026-04-27 20:36 31.41765 -16.55574 37075 ft 498 kts 185°
2026-04-27 20:36 31.34805 -16.55050 37078 ft 503 kts 179°
2026-04-27 20:37 31.27853 -16.54360 37079 ft 502 kts 179°
2026-04-27 20:37 31.20884 -16.53649 37079 ft 502 kts 179°
2026-04-27 20:38 31.13914 -16.52934 37079 ft 501 kts 179°
2026-04-27 20:38 31.06980 -16.52222 37078 ft 500 kts 179°
2026-04-27 20:39 31.00071 -16.51514 37083 ft 502 kts 179°
2026-04-27 20:39 30.93110 -16.50802 37077 ft 501 kts 179°
2026-04-27 20:40 30.86179 -16.50092 37072 ft 501 kts 179°
2026-04-27 20:40 30.79224 -16.49382 37073 ft 500 kts 179°
2026-04-27 20:41 30.72247 -16.48671 37074 ft 500 kts 180°
2026-04-27 20:41 30.65333 -16.47967 37078 ft 500 kts 180°
2026-04-27 20:42 30.58367 -16.47259 37075 ft 501 kts 179°
2026-04-27 20:42 30.51434 -16.46555 37076 ft 500 kts 180°
2026-04-27 20:43 30.44515 -16.45854 37076 ft 499 kts 180°
2026-04-27 20:43 30.37587 -16.45153 37077 ft 499 kts 180°
2026-04-27 20:44 30.30668 -16.44454 37079 ft 499 kts 180°
2026-04-27 20:44 30.23764 -16.43759 37075 ft 499 kts 180°
2026-04-27 20:45 30.16843 -16.43062 37075 ft 500 kts 180°
2026-04-27 20:45 30.09884 -16.42362 37076 ft 499 kts 180°
2026-04-27 20:46 30.03002 -16.41671 37081 ft 497 kts 180°
2026-04-27 20:46 29.96108 -16.40981 37081 ft 498 kts 180°
2026-04-27 20:47 29.89174 -16.40286 37074 ft 497 kts 180°
2026-04-27 20:47 29.82274 -16.39597 37072 ft 497 kts 180°
2026-04-27 20:48 29.76513 -16.39022 37075 ft 498 kts 180°
2026-04-27 20:48 29.68507 -16.38221 37069 ft 496 kts 179°
2026-04-27 20:49 29.61703 -16.36360 37084 ft 508 kts 162°
2026-04-27 20:49 29.55523 -16.32288 37084 ft 516 kts 143°
2026-04-27 20:50 29.50567 -16.26359 37084 ft 520 kts 130°
2026-04-27 20:50 29.45905 -16.20031 37078 ft 520 kts 132°
2026-04-27 20:51 29.41164 -16.13772 37071 ft 519 kts 132°
2026-04-27 20:51 29.36416 -16.07556 37073 ft 520 kts 133°
2026-04-27 20:52 29.31658 -16.01348 37072 ft 520 kts 133°
2026-04-27 20:52 29.26892 -15.95143 37070 ft 520 kts 133°
2026-04-27 20:53 29.22123 -15.88940 37070 ft 521 kts 133°
2026-04-27 20:53 29.17334 -15.82725 37067 ft 521 kts 133°
2026-04-27 20:54 29.12491 -15.76448 35784 ft 526 kts 133°
2026-04-27 20:54 29.10083 -15.73330 35141 ft 522 kts 133°
2026-04-27 20:54 29.07706 -15.70255 34510 ft 519 kts 133°
2026-04-27 20:55 29.05315 -15.67164 33884 ft 517 kts 133°
2026-04-27 20:55 29.02964 -15.64129 33304 ft 516 kts 133°
2026-04-27 20:55 29.00559 -15.61026 32712 ft 519 kts 133°
2026-04-27 20:55 28.98168 -15.57941 32130 ft 522 kts 133°
2026-04-27 20:56 28.95765 -15.54846 31547 ft 524 kts 132°
2026-04-27 20:56 28.93365 -15.51755 30961 ft 526 kts 132°
2026-04-27 20:56 28.90927 -15.48620 30369 ft 526 kts 132°
2026-04-27 20:56 28.88490 -15.45485 29768 ft 527 kts 132°
2026-04-27 20:57 28.86072 -15.42378 29179 ft 527 kts 131°
2026-04-27 20:57 28.83667 -15.39290 28594 ft 523 kts 131°
2026-04-27 20:57 28.81249 -15.36188 28003 ft 516 kts 131°
2026-04-27 20:57 28.78901 -15.33177 27422 ft 510 kts 132°
2026-04-27 20:58 28.76533 -15.30143 26824 ft 503 kts 132°
2026-04-27 20:58 28.74245 -15.27214 26258 ft 495 kts 132°
2026-04-27 20:58 28.71973 -15.24307 25696 ft 488 kts 132°
2026-04-27 20:58 28.69716 -15.21423 25128 ft 481 kts 131°
2026-04-27 20:59 28.67511 -15.18606 24569 ft 475 kts 131°
2026-04-27 20:59 28.65324 -15.15813 24026 ft 469 kts 131°
2026-04-27 20:59 28.63188 -15.13090 23496 ft 463 kts 131°
2026-04-27 20:59 28.61052 -15.10366 22960 ft 457 kts 131°
2026-04-27 21:00 28.58948 -15.07684 22426 ft 455 kts 131°
2026-04-27 21:00 28.56861 -15.05027 21912 ft 450 kts 131°
2026-04-27 21:00 28.54763 -15.02358 21385 ft 446 kts 131°
2026-04-27 21:00 28.52724 -14.99764 20883 ft 442 kts 131°
2026-04-27 21:01 28.50674 -14.97159 20376 ft 440 kts 131°
2026-04-27 21:01 28.48643 -14.94580 19872 ft 435 kts 131°
2026-04-27 21:01 28.46666 -14.92070 19386 ft 432 kts 132°
2026-04-27 21:01 28.45732 -14.90889 19142 ft 429 kts 131°
2026-04-27 21:02 28.43759 -14.88388 18662 ft 425 kts 131°
2026-04-27 21:02 28.41803 -14.85908 18184 ft 420 kts 131°
2026-04-27 21:02 28.41386 -14.85380 18081 ft 420 kts 131°
2026-04-27 21:02 28.39451 -14.82928 17607 ft 416 kts 131°
2026-04-27 21:03 28.37516 -14.80478 17132 ft 415 kts 131°
2026-04-27 21:03 28.35606 -14.78061 16659 ft 413 kts 131°
2026-04-27 21:03 28.33688 -14.75637 16183 ft 411 kts 131°
2026-04-27 21:03 28.31805 -14.73257 15713 ft 410 kts 131°
2026-04-27 21:04 28.29883 -14.70831 15238 ft 407 kts 131°
2026-04-27 21:04 28.27996 -14.68450 14765 ft 407 kts 131°
2026-04-27 21:04 28.26120 -14.66085 14294 ft 403 kts 131°
2026-04-27 21:04 28.24257 -14.63737 13828 ft 402 kts 131°
2026-04-27 21:05 28.22401 -14.61399 13362 ft 398 kts 131°
2026-04-27 21:05 28.20572 -14.59096 12905 ft 394 kts 131°
2026-04-27 21:05 28.18748 -14.56800 12444 ft 389 kts 131°
2026-04-27 21:05 28.16932 -14.54511 12025 ft 386 kts 130°
2026-04-27 21:06 28.15452 -14.52085 12007 ft 364 kts 114°
2026-04-27 21:06 28.14680 -14.49448 12004 ft 343 kts 97°
2026-04-27 21:06 28.14528 -14.46848 11983 ft 324 kts 88°
2026-04-27 21:06 28.14546 -14.44381 11941 ft 305 kts 86°
2026-04-27 21:07 28.14617 -14.42031 11892 ft 288 kts 84°
2026-04-27 21:07 28.14720 -14.39811 11555 ft 285 kts 84°
2026-04-27 21:07 28.14843 -14.37549 11160 ft 283 kts 84°
2026-04-27 21:07 28.14972 -14.35365 10808 ft 280 kts 83°
2026-04-27 21:08 28.15105 -14.33174 10418 ft 279 kts 84°
2026-04-27 21:08 28.15241 -14.30973 10049 ft 277 kts 84°
2026-04-27 21:08 28.15374 -14.28839 9674 ft 275 kts 84°
2026-04-27 21:08 28.15511 -14.26650 9209 ft 277 kts 84°
2026-04-27 21:09 28.15648 -14.24452 8733 ft 279 kts 84°
2026-04-27 21:09 28.15783 -14.22279 8260 ft 280 kts 84°
2026-04-27 21:09 28.15920 -14.20077 7755 ft 278 kts 83°
2026-04-27 21:09 28.16053 -14.17930 7264 ft 275 kts 83°
2026-04-27 21:10 28.16183 -14.15819 7082 ft 258 kts 83°
2026-04-27 21:10 28.16301 -14.13884 7071 ft 237 kts 83°
2026-04-27 21:10 28.16422 -14.12074 6943 ft 227 kts 78°
2026-04-27 21:10 28.17010 -14.10454 6487 ft 222 kts 46°
2026-04-27 21:11 28.18118 -14.09334 6297 ft 211 kts 38°
2026-04-27 21:11 28.19246 -14.08268 6067 ft 211 kts 38°
2026-04-27 21:11 28.20387 -14.07204 5836 ft 210 kts 37°
2026-04-27 21:11 28.21520 -14.06161 5596 ft 210 kts 37°
2026-04-27 21:12 28.22641 -14.05134 5350 ft 203 kts 37°
2026-04-27 21:12 28.23733 -14.04139 5120 ft 197 kts 36°
2026-04-27 21:12 28.24778 -14.03188 4906 ft 192 kts 36°
2026-04-27 21:12 28.25807 -14.02236 4672 ft 187 kts 37°
2026-04-27 21:13 28.26542 -14.01019 4427 ft 194 kts 74°
2026-04-27 21:13 28.26419 -13.99506 4292 ft 201 kts 111°
2026-04-27 21:13 28.25722 -13.98122 4004 ft 202 kts 116°
2026-04-27 21:13 28.25082 -13.96721 3680 ft 200 kts 111°
2026-04-27 21:14 28.24527 -13.95291 3399 ft 196 kts 108°
2026-04-27 21:14 28.24055 -13.93840 3166 ft 196 kts 104°
2026-04-27 21:14 28.23680 -13.92361 2948 ft 194 kts 98°
2026-04-27 21:14 28.23578 -13.90863 2724 ft 188 kts 73°
2026-04-27 21:15 28.24201 -13.89705 2670 ft 165 kts 30°
2026-04-27 21:15 28.25228 -13.89172 2704 ft 163 kts 18°
2026-04-27 21:15 28.26319 -13.88713 2686 ft 167 kts 17°
2026-04-27 21:15 28.27426 -13.88291 2674 ft 164 kts 15°
2026-04-27 21:16 28.28508 -13.87911 2679 ft 164 kts 14°
2026-04-27 21:16 28.29578 -13.87555 2683 ft 153 kts 13°
2026-04-27 21:16 28.30568 -13.87209 2625 ft 146 kts 15°
2026-04-27 21:16 28.31524 -13.86875 2419 ft 139 kts
2026-04-27 21:17 28.32463 -13.86813 2244 ft 134 kts 359°
2026-04-27 21:17 28.33408 -13.86781 2089 ft 135 kts
2026-04-27 21:17 28.34135 -13.86752 1966 ft 134 kts
2026-04-27 21:17 28.34849 -13.86727 1827 ft 134 kts
2026-04-27 21:18 28.35785 -13.86693 1661 ft 134 kts 360°
2026-04-27 21:18 28.36709 -13.86662 1490 ft 134 kts
2026-04-27 21:18 28.37639 -13.86631 1319 ft 135 kts 359°
2026-04-27 21:18 28.38582 -13.86599 1129 ft 134 kts 360°
2026-04-27 21:19 28.39518 -13.86566 956 ft 134 kts
2026-04-27 21:19 28.40456 -13.86524 767 ft 137 kts 359°
2026-04-27 21:19 28.41423 -13.86492 606 ft 138 kts 359°
2026-04-27 21:20 28.43316 -13.86437 257 ft 135 kts 359°
2026-04-27 21:20 28.44274 -13.86408 90 ft 137 kts 359°
2026-04-27 21:20 28.45157 -13.86381 89 ft 97 kts
2026-04-27 21:20 28.45610 -13.86370 99 ft 22 kts
2026-04-27 21:21 28.45646 -13.86367 101 ft 3 kts
2026-04-27 21:21 28.45656 -13.86373 102 ft 1 kts 313°
2026-04-27 21:21 28.45658 -13.86390 102 ft 4 kts 274°
2026-04-27 21:21 28.45660 -13.86423 105 ft 3 kts 271°
2026-04-27 21:22 28.45660 -13.86445 108 ft 2 kts 271°
2026-04-27 21:22 28.45660 -13.86463 111 ft 2 kts 271°
2026-04-27 21:22 28.45661 -13.86491 116 ft 4 kts 271°
2026-04-27 21:22 28.45662 -13.86534 120 ft 4 kts 269°
2026-04-27 21:23 28.45648 -13.86556 121 ft 4 kts 210°
2026-04-27 21:23 28.45607 -13.86561 121 ft 7 kts 180°
2026-04-27 21:23 28.45545 -13.86562 122 ft 8 kts 181°
2026-04-27 21:23 28.45499 -13.86562 123 ft 5 kts 181°
2026-04-27 21:24 28.45466 -13.86567 125 ft 3 kts 197°
2026-04-27 21:24 28.45440 -13.86578 126 ft 3 kts 214°
2026-04-27 21:24 28.45435 -13.86592 127 ft 1 kts 265°
2026-04-27 21:24 28.45436 -13.86612 128 ft 3 kts 272°
2026-04-27 21:25 28.45437 -13.86641 130 ft 2 kts 271°
2026-04-27 21:25 28.45437 -13.86643 130 ft 0 kts 272°